IRIDIUM 106 1 41917U 17003A 26162.51400683 .00000007 00000+0 -45859-5 0 9990 2 41917 86.3962 90.9277 0001800 82.3211 277.8189 14.34217562492392 IRIDIUM 103 1 41918U 17003B 26162.50132299 .00000030 00000+0 35517-5 0 9990 2 41918 86.3961 90.8329 0002410 79.3941 280.7526 14.34217168492416 IRIDIUM 109 1 41919U 17003C 26162.50766514 .00000013 00000+0 -24806-5 0 9995 2 41919 86.3962 90.8897 0002198 83.2620 276.8826 14.34217632492380 IRIDIUM 102 1 41920U 17003D 26162.54572104 .00000043 00000+0 81902-5 0 9993 2 41920 86.3960 90.7972 0002246 85.9930 274.1523 14.34217592492470 IRIDIUM 105 1 41921U 17003E 26162.71362640 .00000235 00000+0 76927-4 0 9998 2 41921 86.3971 59.1586 0002536 85.3776 274.7710 14.34218128494356 IRIDIUM 104 1 41922U 17003F 26162.55840655 .00000154 00000+0 48042-4 0 9995 2 41922 86.3963 90.8345 0002519 82.3824 277.7658 14.34217967492469 IRIDIUM 114 1 41923U 17003G 26162.21590625 .00000006 00000+0 -49420-5 0 9997 2 41923 86.3960 90.9609 0002277 81.7355 278.4099 14.34217490492394 IRIDIUM 108 1 41924U 17003H 26162.66280703 .00000052 00000+0 11504-4 0 9991 2 41924 86.3964 59.0703 0002258 87.1051 273.0403 14.34217590494317 IRIDIUM 112 1 41925U 17003J 26162.55206348 .00000038 00000+0 64765-5 0 9995 2 41925 86.3958 90.6626 0002374 84.6900 275.4567 14.34217311492462 IRIDIUM 111 1 41926U 17003K 26162.33007803 .00000162 00000+0 50779-4 0 9994 2 41926 86.3961 90.8258 0002273 82.0731 278.0723 14.34215440492411 IRIDIUM 113 1 42803U 17039A 26162.51934297 .00000050 00000+0 10677-4 0 9993 2 42803 86.3966 324.5486 0002303 89.5088 270.6372 14.34217670470378 IRIDIUM 123 1 42804U 17039B 26162.56081972 .00000164 00000+0 51483-4 0 9998 2 42804 86.3972 355.9898 0002067 84.8067 275.3365 14.34217371469148 IRIDIUM 120 1 42805U 17039C 26162.51299091 .00000260 00000+0 85724-4 0 9999 2 42805 86.3954 324.3343 0001998 93.7814 266.3610 14.34214344470361 IRIDIUM 115 1 42806U 17039D 26162.50277278 .00000289 00000+0 79993-4 0 9994 2 42806 86.4492 324.4667 0002013 87.6652 272.4780 14.43281602473440 IRIDIUM 118 1 42807U 17039E 26162.59253384 -.00000023 00000+0 -15127-4 0 9993 2 42807 86.3967 355.9746 0002069 88.0435 272.0998 14.34217444469141 IRIDIUM 117 1 42808U 17039F 26162.54179353 .00000046 00000+0 93385-5 0 9998 2 42808 86.3972 355.9537 0002141 85.9514 274.1926 14.34217729469163 IRIDIUM 126 1 42809U 17039G 26162.56716316 -.00000003 00000+0 -81272-5 0 9994 2 42809 86.3967 355.9937 0002130 85.2257 274.9182 14.34217171469148 IRIDIUM 124 1 42810U 17039H 26162.43659274 .00000297 00000+0 82399-4 0 9994 2 42810 86.4477 292.7637 0002173 92.5608 267.5842 14.43279046474281 IRIDIUM 128 1 42811U 17039J 26162.69743883 .00000013 00000+0 -22777-5 0 9995 2 42811 86.3969 27.4456 0001871 85.7478 274.3931 14.34217519469198 IRIDIUM 121 1 42812U 17039K 26162.58619161 .00000122 00000+0 36673-4 0 9994 2 42812 86.3971 356.0137 0002115 90.0715 270.0723 14.34217269469020 IRIDIUM 133 1 42955U 17061A 26162.65938045 .00000100 00000+0 28537-4 0 9996 2 42955 86.3974 27.5793 0002122 85.4240 274.7198 14.34217244453986 IRIDIUM 100 1 42956U 17061B 26162.65303738 .00000105 00000+0 30322-4 0 9992 2 42956 86.3970 27.5007 0002113 85.1669 274.9768 14.34218939453980 IRIDIUM 122 1 42957U 17061C 26162.69109619 .00000017 00000+0 -11669-5 0 9996 2 42957 86.3970 27.4850 0002213 84.6110 275.5338 14.34217627453996 IRIDIUM 129 1 42958U 17061D 26162.08854972 .00000082 00000+0 22185-4 0 9994 2 42958 86.3975 27.8039 0002418 87.5929 272.5544 14.34218003453920 IRIDIUM 119 1 42959U 17061E 26162.68475391 .00000053 00000+0 11841-4 0 9990 2 42959 86.3973 27.5505 0002269 84.1144 276.0310 14.34217836454025 IRIDIUM 107 1 42960U 17061F 26162.70378093 -.00000025 00000+0 -15817-4 0 9994 2 42960 86.3969 27.5634 0001900 80.4071 279.7339 14.34217242454037 IRIDIUM 132 1 42961U 17061G 26162.71012361 .00000130 00000+0 39288-4 0 9992 2 42961 86.3974 27.5406 0002215 84.9851 275.1598 14.34217509454039 IRIDIUM 136 1 42962U 17061H 26162.67207269 .00000195 00000+0 62615-4 0 9992 2 42962 86.3975 27.5631 0002213 83.9342 276.2106 14.34215605454046 IRIDIUM 139 1 42963U 17061J 26162.67841125 .00000061 00000+0 14756-4 0 9993 2 42963 86.3975 27.6225 0002040 86.2885 273.8544 14.34217588454055 IRIDIUM 125 1 42964U 17061K 26162.66572631 .00000010 00000+0 -33338-5 0 9999 2 42964 86.3972 27.6883 0002257 73.5472 286.5972 14.34217517454063 IRIDIUM 135 1 43070U 17083A 26162.50031458 .00000025 00000+0 18238-5 0 9999 2 43070 86.3962 324.3936 0002167 91.4209 268.7235 14.34217679443335 IRIDIUM 138 1 43071U 17083B 26162.52568528 .00000112 00000+0 33064-4 0 9995 2 43071 86.3977 324.0776 0002383 87.7808 272.3661 14.34218167443320 IRIDIUM 116 1 43072U 17083C 26162.70327725 .00000064 00000+0 15909-4 0 9992 2 43072 86.3959 324.2947 0001882 95.6991 264.4419 14.34217691443387 IRIDIUM 130 1 43073U 17083D 26162.46225793 -.00000093 00000+0 -40443-4 0 9993 2 43073 86.3965 324.6703 0001838 89.0856 271.0550 14.34217257443295 IRIDIUM 151 1 43074U 17083E 26162.50665713 .00000036 00000+0 56628-5 0 9997 2 43074 86.3962 324.4347 0002127 92.5204 267.6235 14.34217635443328 IRIDIUM 134 1 43075U 17083F 26162.68424950 .00000006 00000+0 -47980-5 0 9992 2 43075 86.3959 324.3682 0001971 89.5855 270.5567 14.34217573443311 IRIDIUM 137 1 43076U 17083G 26162.69693488 .00000042 00000+0 79722-5 0 9996 2 43076 86.3964 324.4556 0002089 103.4738 256.6691 14.34217579443382 IRIDIUM 141 1 43077U 17083H 26162.69059223 .00000066 00000+0 16670-4 0 9998 2 43077 86.3959 324.2892 0002215 90.7109 269.4341 14.34217942443387 IRIDIUM 153 1 43078U 17083J 26162.64277125 .00000017 00000+0 -82170-6 0 9994 2 43078 86.3955 292.7895 0002180 90.4152 269.7293 14.34217586444487 IRIDIUM 131 1 43079U 17083K 26162.53837027 .00000000 00000+0 -70075-5 0 9998 2 43079 86.3963 324.5387 0002082 91.7581 268.3853 14.34217340443291 IRIDIUM 144 1 43249U 18030A 26162.64911338 .00000040 00000+0 70720-5 0 9990 2 43249 86.3955 292.7158 0002061 95.7130 264.4301 14.34217691429348 IRIDIUM 149 1 43250U 18030B 26162.65545601 .00000028 00000+0 30763-5 0 9998 2 43250 86.3954 292.6803 0002239 93.3371 266.8081 14.34217872429367 IRIDIUM 157 1 43251U 18030C 26162.60471559 .00000010 00000+0 -36687-5 0 9997 2 43251 86.3953 292.7547 0002079 94.1178 266.0255 14.34217526429337 IRIDIUM 140 1 43252U 18030D 26162.41443740 .00000017 00000+0 -10460-5 0 9996 2 43252 86.3954 292.8469 0002009 92.9536 267.1889 14.34217602429363 IRIDIUM 145 1 43253U 18030E 26162.61105697 .00000245 00000+0 80344-4 0 9994 2 43253 86.3955 292.7368 0001895 98.7640 261.3771 14.34217769429320 IRIDIUM 146 1 43254U 18030F 26162.59203016 .00000018 00000+0 -74683-6 0 9996 2 43254 86.3956 292.7570 0002089 95.9032 264.2402 14.34217654429334 IRIDIUM 148 1 43255U 18030G 26162.63008625 -.00000004 00000+0 -86347-5 0 9996 2 43255 86.3955 292.7843 0002091 97.2150 262.9283 14.34217203429372 IRIDIUM 142 1 43256U 18030H 26162.59837213 .00000146 00000+0 45167-4 0 9994 2 43256 86.3953 292.6865 0002019 96.9179 263.2246 14.34217011429337 IRIDIUM 150 1 43257U 18030J 26162.63642823 .00000006 00000+0 -47441-5 0 9995 2 43257 86.3953 292.7869 0002017 93.1251 267.0175 14.34217534429367 IRIDIUM 143 1 43258U 18030K 26162.61740041 .00000206 00000+0 66546-4 0 9992 2 43258 86.3958 292.8871 0002062 95.1689 264.9742 14.34218134429299 IRIDIUM 161 1 43478U 18047C 26162.55319983 .00000273 00000+0 75187-4 0 9999 2 43478 86.4482 90.8267 0002556 86.7276 273.4217 14.43279844424323 IRIDIUM 152 1 43479U 18047D 26162.31104524 -.00000008 00000+0 -98023-5 0 9990 2 43479 86.3957 90.7889 0002247 83.5993 276.5459 14.34217379421646 IRIDIUM 147 1 43480U 18047E 26162.31738713 .00000049 00000+0 10551-4 0 9997 2 43480 86.3959 90.7913 0002160 84.9428 275.2015 14.34217760421648 IRIDIUM 110 1 43481U 18047F 26162.53303625 .00000018 00000+0 -62415-6 0 9997 2 43481 86.3961 90.7930 0002596 84.9448 275.2044 14.34217715421660 IRIDIUM 162 1 43482U 18047G 26162.54690502 .00000271 00000+0 74600-4 0 9999 2 43482 86.4480 90.7204 0002327 83.0053 277.1413 14.43278492424311 IRIDIUM 160 1 43569U 18061A 26162.68817738 -.00000011 00000+0 -10933-4 0 9991 2 43569 86.3962 59.0965 0002178 85.5795 274.5650 14.34217336412587 IRIDIUM 166 1 43570U 18061B 26162.71354719 .00000134 00000+0 40948-4 0 9995 2 43570 86.3967 59.0364 0002123 86.1001 274.0437 14.34217921412616 IRIDIUM 158 1 43571U 18061C 26162.68183417 .00000067 00000+0 16908-4 0 9991 2 43571 86.3965 59.0599 0002246 82.2926 277.8525 14.34217724412579 IRIDIUM 165 1 43572U 18061D 26162.70720215 .00000139 00000+0 42612-4 0 9999 2 43572 86.3968 59.0955 0002079 85.6310 274.5123 14.34217027412605 IRIDIUM 155 1 43573U 18061E 26162.66914877 .00000011 00000+0 -32530-5 0 9993 2 43573 86.3962 58.9806 0002148 82.4620 277.6820 14.34217668412563 IRIDIUM 154 1 43574U 18061F 26162.65012119 .00000019 00000+0 -12586-6 0 9999 2 43574 86.3967 59.1219 0002088 87.4036 272.7398 14.34217616412614 IRIDIUM 163 1 43575U 18061G 26162.70085407 .00000177 00000+0 56219-4 0 9999 2 43575 86.3964 59.0163 0002290 83.4500 276.6957 14.34216499412595 IRIDIUM 156 1 43576U 18061H 26162.67549060 .00000195 00000+0 62663-4 0 9996 2 43576 86.3962 59.0340 0002109 80.4573 279.6861 14.34216913412584 IRIDIUM 164 1 43577U 18061J 26162.65646363 .00000072 00000+0 18632-4 0 9990 2 43577 86.3967 59.0824 0002093 88.8767 271.2668 14.34217643412625 IRIDIUM 159 1 43578U 18061K 26162.69451941 .00000122 00000+0 36502-4 0 9993 2 43578 86.3963 59.0034 0002314 84.4327 275.7133 14.34217298412593 IRIDIUM 180 1 43922U 19002A 26162.62424632 .00000004 00000+0 -55045-5 0 9996 2 43922 86.3967 355.9237 0002141 89.0468 271.0973 14.34217695388198 IRIDIUM 176 1 43923U 19002B 26162.58562390 .00000691 00000+0 10567-3 0 9995 2 43923 86.6092 355.8843 0002239 91.6115 268.5359 14.72259705398425 IRIDIUM 168 1 43924U 19002C 26162.61790469 .00000043 00000+0 82047-5 0 9995 2 43924 86.3974 356.0035 0002172 88.8513 271.2932 14.34217797388176 IRIDIUM 173 1 43925U 19002D 26162.60521894 .00000005 00000+0 -52121-5 0 9998 2 43925 86.3965 355.8977 0002126 86.6051 273.5388 14.34217084388158 IRIDIUM 169 1 43926U 19002E 26162.68778061 .00000123 00000+0 33591-4 0 9996 2 43926 86.4230 27.4928 0002044 70.8766 289.2653 14.38606189389433 IRIDIUM 172 1 43927U 19002F 26162.59887523 .00000175 00000+0 55461-4 0 9998 2 43927 86.3970 355.9086 0002258 89.5000 270.6455 14.34216981388169 IRIDIUM 175 1 43928U 19002G 26162.45338720 .00000262 00000+0 71507-4 0 9990 2 43928 86.4508 292.9181 0001749 200.8836 159.2294 14.43609548398151 IRIDIUM 171 1 43929U 19002H 26162.57984719 -.00000279 00000+0 -10664-3 0 9995 2 43929 86.3975 356.2219 0001920 86.0644 274.0771 14.34217083388151 IRIDIUM 170 1 43930U 19002J 26162.59180642 .00000687 00000+0 10501-3 0 9993 2 43930 86.6090 355.8840 0002364 88.1225 272.0262 14.72260116398432 IRIDIUM 167 1 43931U 19002K 26162.57350545 .00000053 00000+0 11950-4 0 9990 2 43931 86.3971 355.9413 0001852 87.5306 272.6101 14.34217893388157 IRIDIUM 181 1 56726U 23068S 26162.69876565 .00000274 00000+0 75393-4 0 9997 2 56726 86.4503 59.0849 0002329 89.7441 270.4027 14.43311762161640 IRIDIUM 177 1 56727U 23068T 26162.50882649 .00000916 00000+0 11706-3 0 9998 2 56727 86.1959 331.4891 0002413 87.3635 272.7862 14.80219553165529 IRIDIUM 174 1 56728U 23068U 26162.57945566 .00000710 00000+0 10861-3 0 9997 2 56728 86.6098 356.0361 0002543 84.7822 275.3685 14.72256247165194 IRIDIUM 178 1 56729U 23068V 26162.63316135 .00000864 00000+0 11028-3 0 9995 2 56729 86.6542 27.6815 0002680 87.4832 272.6696 14.80224307165549 IRIDIUM 179 1 56730U 23068W 26162.69537507 .00000956 00000+0 12242-3 0 9992 2 56730 86.6781 36.6189 0002402 88.1339 272.0158 14.80236495165551